{"data":{"norad_id":69162,"intl_designator":"2026-111Q","name":"STARLINK-36286","alt_names":[],"object_type":"PAYLOAD","status":"ACTIVE","operator":null,"country":"US","launch_date":"2026-05-21","launch_site_code":"AFETR","launch_vehicle":null,"mission":null,"orbit_class":"UNKNOWN","rcs_meters":null,"size_class":null,"mass_kg":null,"dimensions":null,"purposes":["comms"],"wikipedia_slug":null,"has_3d_model":false,"image_url":null,"decayed_at":null,"tle_current":{"epoch":"2026-09-19T19:37:07.260960Z","epoch_age_seconds":82138,"freshness":"FRESH","line1":"1 69162U 26111Q   26262.81744515  .00015418  00000+0  46643-3 0  9992","line2":"2 69162  53.1579  68.9402 0002798  17.8001 342.3099 15.34403531 18792","mean_motion":15.34403531,"eccentricity":0.0002798,"inclination_deg":53.1579,"raan_deg":68.9402,"arg_perigee_deg":17.8001,"mean_anomaly_deg":342.3099,"bstar":0.00046643,"rev_number":1879,"period_min":93.847542117003,"perigee_km":460.77868118836,"apogee_km":464.60680951386,"semimajor_km":6840.8297453511,"source":"CELESTRAK","updated_at":"2026-09-20T09:00:44.092187Z"}}}